Terminal Aerodrome Forecast
Issued by NWS

Current Version | Previous Version | Text Only | Print | Product List | Glossary On
Versions: 1 2 3 4 5 6 7 8 9 10 11 12 13 14 15 16 17 18 19 20 21 22 23
000
FTUS45 KREV 290520
TAFCXP
TAF
KCXP 290520Z 2906/3006 23010G18KT P6SM SCT200
     FM291700 23022G35KT P6SM SCT120 SCT180
     FM292300 25015G25KT P6SM SCT120 BKN200=

USA.gov is the U.S. government's official web portal to all federal, state and local government web resources and services.